Regional Weather Roundup
Issued by NWS

Home | Current Version | Previous Version | Text Only | Print | Product List | Glossary Off
Versions: 1 2 3 4 5 6 7 8 9 10 11 12 13 14 15 16 17 18 19 20 21 22 23 24 25 26 27 28 29 30 31 32 33 34 35 36 37 38 39 40 41 42 43 44 45 46 47 48 49 50

000
ASUS43 KIND 272209
RWRIN

WEATHER ROUNDUP FOR INDIANA
NATIONAL WEATHER SERVICE INDIANAPOLIS IN
600 PM EDT MON MAR 27 2017

NOTE: "FAIR" INDICATES FEW OR NO CLOUDS BELOW 12,000 FEET WITH NO
SIGNIFICANT WEATHER AND/OR OBSTRUCTIONS TO VISIBILITY.

* - STATION DOES NOT REPORT WEATHER SUCH AS PRECIPITATION OR FOG.

+ - STATION NOT QUALITY CONTROLLED BY THE NATIONAL WEATHER SERVICE.
    USE DATA WITH CAUTION...ESPECIALLY DEWPOINT AND RELATIVE
    HUMIDITY OBSERVATIONS.

INZ001>003-010>013-019-020-272300-
NORTHWEST INDIANA

CITY           SKY/WX    TMP DP  RH WIND       PRES   REMARKS
GARY /AIRPORT/ CLOUDY    43  41  93 N7        29.92S FOG
KNOX *+        CLOUDY    55  36  47 N6        29.88S
LA PORTE +     RAIN      50  48  93 N8        29.90S
MICHIGAN CITY+ LGT RAIN  43  43 100 N6        29.91F
MONTICELLO +   LGT RAIN  59  53  80 NE8       29.85S
RENSSELAER +   PTSUNNY   57  54  88 N6        29.86F
VALPARAISO     LGT RAIN  51  48  89 N8        29.89S FOG

$$

LMZ046-743>745-272300-
SOUTHERN LAKE MICHIGAN

STATION/POSITION TIME  TEMP    WIND        PRES    WAVE
                       AIR SEA DIR/SP/G            HT
                 (UTC) (F)     (DEG/KT/KT) (MB)    (FT)
BURNS HARBOR     2140   40      50/  8/ 10 1013.2F
MICHIGAN CITY    2140   39      30/  9/ 10   N/A

$$

INZ004-005-014>016-021>024-272300-
NORTH CENTRAL INDIANA

CITY           SKY/WX    TMP DP  RH WIND       PRES   REMARKS
ELKHART        PTSUNNY   55  48  76 NW5       29.88F
GOSHEN         CLOUDY    57  48  72 W5        29.87F
LOGANSPORT +   LGT RAIN  59  52  77 NE3       29.86S
PERU/GRISSOM   DRIZZLE   59  57  92 NE6       29.84F
ROCHESTER +    DRIZZLE   61  52  72 CALM      29.87S
SOUTH BEND     LGT RAIN  53  50  89 N8        29.89F
WARSAW +       LGT RAIN  55  50  82 NW5       29.87F

$$

INZ006>009-017-018-025>027-272300-
NORTHEAST INDIANA

CITY           SKY/WX    TMP DP  RH WIND       PRES   REMARKS
ANGOLA *+      MOSUNNY   57  50  77 VRB5      29.87F
AUBURN +       MOSUNNY   59  48  67 W5        29.88F
FORT WAYNE     LGT RAIN  60  51  72 CALM      29.87S
HUNTINGTON +   DRIZZLE   58  52  80 NE3       29.86S
KENDALLVILLE + CLOUDY    57  49  75 W3        29.88F

$$

INZ028-029-035-036-043>045-051>053-272300-
WEST CENTRAL INDIANA

CITY           SKY/WX    TMP DP  RH WIND       PRES   REMARKS
CRAWFORDSVL +  CLOUDY    55  55 100 E6        29.83F
GREENCASTLE +  CLOUDY    59  52  77 SE5       29.82F
LAFAYETTE      LGT RAIN  58  54  86 SE8       29.84S FOG
TERRE HAUTE    CLOUDY    60  54  80 E5        29.80F

$$

INZ030>032-037>040-046>048-054>057-064-065-272300-
CENTRAL INDIANA

CITY           SKY/WX    TMP DP  RH WIND       PRES   REMARKS
CP ATTERBURY + CLOUDY    63  54  72 CALM      29.84F
COLUMBUS       CLOUDY    64  57  77 S8        29.83F
FISHERS *+     CLOUDY    57  54  88 CALM      29.85S
FRANKFORT +    DRIZZLE   59  56  91 SE5       29.87S
GREENWOOD *+   CLOUDY    61  54  76 SE6       29.84F
INDIANAPOLIS   CLOUDY    60  53  77 E9        29.82F
-EAGLE CREEK   CLOUDY    60  52  74 E6        29.83F
KOKOMO +       LGT RAIN  58  55  90 SE5       29.86F FOG
MARION +       CLOUDY    58  53  81 SE6       29.85F
MT COMFORT *+  CLOUDY    59  52  77 SE5       29.85S
SHELBYVILLE    CLOUDY    63  52  67 E6        29.83F
ZIONSVILLE +   CLOUDY    57  52  82 SE6       29.85S

$$

INZ033-034-041-042-049-050-058-059-272300-
EAST CENTRAL INDIANA

CITY           SKY/WX    TMP DP  RH WIND       PRES   REMARKS
MUNCIE         CLOUDY    62  53  72 E5        29.85F
RICHMOND +     CLOUDY    61  50  67 SE8       29.87S

$$

INZ060-061-067>069-081>083-085>088-272300-
SOUTHWEST INDIANA

CITY           SKY/WX    TMP DP  RH WIND       PRES   REMARKS
EVANSVILLE     CLOUDY    60  54  80 SW7       29.80S
HUNTINGBURG *+ LGT RAIN  56  54  93 SE7       29.81R
WASHINGTON +   CLOUDY    64  55  71 CALM      29.78F

$$

INZ062-063-066-070>080-084-089>092-272300-
SOUTH CENTRAL AND SOUTHEAST INDIANA

CITY           SKY/WX    TMP DP  RH WIND       PRES   REMARKS
BEDFORD +      CLOUDY   N/A N/A N/A CALM      29.80F
BLOOMINGTON    CLOUDY    63  53  70 E3        29.80F
MADISON *+     CLOUDY    63  57  82 S3        29.85S
NORTH VERNON + CLOUDY    68  55  64 S9        29.85S
SEYMOUR +      CLOUDY    68  55  64 CALM      29.81F

$$





USA.gov is the U.S. government's official web portal to all federal, state and local government web resources and services.